Frankfort, MI

8:32 PM EST on December 05, 2019 (GMT -0500)
Frankfort

Weather History for KFKS - October, 2019

Change the Weather History Date:

Monday, October 28, 2019

  Actual Average (KMBL) Record (KMBL)
Temperature  
Mean Temperature 44 °F -  
Max Temperature 51 °F 54 °F 72 °F (1989)
Min Temperature 37 °F 39 °F 21 °F (1992)
Degree Days  
Heating Degree Days 21    
Moisture  
Dew Point 39 °F    
Average Humidity 78    
Maximum Humidity 87    
Minimum Humidity 67    
Precipitation  
Precipitation 0.00 in - - ()
Sea Level Pressure  
Sea Level Pressure 29.98 in    
Wind  
Wind Speed 1 mph (WNW)    
Max Wind Speed 8 mph    
Max Gust Speed -    
Visibility 8 miles    
Events      
Averages and records for this station are not official NWS values.
T = Trace of Precipitation, MM = Missing Value Source: NWS Daily Summary

Daily Weather History Graph

Daily Weather History Graph

Search for Another Location

Airport or City:

Astronomy

Oct. 28, 2019 Rise Set
Actual Time 8:16 AM EDT 6:39 PM EDT
Civil Twilight 7:46 AM EDT 7:09 PM EDT
Nautical Twilight 7:12 AM EDT 7:43 PM EDT
Astronomical Twilight 6:38 AM EDT 8:17 PM EDT
Moon 8:36 AM EDT (10/28) 7:24 PM EDT (10/28)
Length of Visible Light 11h 23m
Length of Day
10h 22m
New Moon, 0% of the Moon is Illuminated
Oct 28
New Moon
Nov 4
First Quarter
Nov 12
Full
Nov 19
Last Quarter
Nov 26
New

Hourly Weather History & Observations

Time (EDT) Temp. Windchill Dew Point Humidity Pressure Visibility Wind Dir Wind Speed Gust Speed Precip Events Conditions
12:15 AM 43.2 °F - 37.8 °F 81% 29.92 in 7.0 mi Calm Calm - N/A   Clear
12:16 AM 43.0 °F - 37.6 °F 81% 29.92 in 7.0 mi Calm Calm - N/A   Clear
12:35 AM 42.3 °F - 37.4 °F 83% 29.92 in 7.0 mi Calm Calm - N/A   Clear
12:40 AM 43.2 °F - 38.7 °F 84% 29.92 in 7.0 mi Calm Calm - N/A   Clear
12:58 AM 42.4 °F - 37.8 °F 83% 29.92 in 5.0 mi Calm Calm - N/A   Clear
1:16 AM 41.9 °F - 37.4 °F 84% 29.93 in 10.0 mi Calm Calm - N/A   Clear
1:35 AM 41.2 °F - 36.7 °F 84% 29.93 in 7.0 mi Calm Calm - N/A   Clear
1:36 AM 41.2 °F - 36.9 °F 85% 29.93 in 5.0 mi Calm Calm - N/A   Clear
1:55 AM 40.5 °F - 36.5 °F 86% 29.93 in 4.0 mi Calm Calm - N/A   Haze
2:19 AM 39.7 °F - 35.6 °F 85% 29.94 in 7.0 mi Calm Calm - N/A   Clear
2:37 AM 39.9 °F - 36.0 °F 86% 29.94 in 4.0 mi Calm Calm - N/A   Clear
2:55 AM 38.7 °F - 34.2 °F 84% 29.94 in 4.0 mi Calm Calm - N/A   Haze
2:56 AM 38.5 °F - 34.0 °F 84% 29.94 in 4.0 mi Calm Calm - N/A   Haze
3:15 AM 39.2 °F - 35.1 °F 85% 29.94 in 4.0 mi Calm Calm - N/A   Clear
3:35 AM 39.9 °F - 36.1 °F 86% 29.95 in 5.0 mi Calm Calm - N/A   Clear
3:58 AM 38.7 °F - 34.7 °F 86% 29.95 in 4.0 mi Calm Calm - N/A   Clear
4:16 AM 37.9 °F - 34.0 °F 86% 29.94 in 1.2 mi Calm Calm - N/A   Scattered Clouds
4:35 AM 38.3 °F - 34.3 °F 86% 29.94 in 5.0 mi Calm Calm - N/A   Mostly Cloudy
4:55 AM 39.9 °F - 35.8 °F 85% 29.94 in 4.0 mi Calm Calm - N/A   Overcast
5:19 AM 40.1 °F - 35.8 °F 85% 29.93 in 5.0 mi Calm Calm - N/A   Mostly Cloudy
5:37 AM 41.2 °F 39.2 °F 37.4 °F 86% 29.93 in 2.5 mi WNW 3.5 mph - N/A   Scattered Clouds
5:55 AM 41.9 °F - 38.1 °F 86% 29.93 in 4.0 mi Calm Calm - N/A   Clear
5:56 AM 42.1 °F - 38.3 °F 86% 29.93 in 4.0 mi Calm Calm - N/A   Clear
6:15 AM 40.6 °F - 36.9 °F 86% 29.93 in 3.0 mi Calm Calm - N/A   Scattered Clouds
6:35 AM 39.7 °F - 36.0 °F 86% 29.93 in 2.0 mi Calm Calm - N/A   Overcast
6:58 AM 40.1 °F - 36.5 °F 87% 29.93 in 5.0 mi Calm Calm - N/A   Overcast
7:16 AM 40.6 °F - 36.9 °F 86% 29.94 in 5.0 mi Calm Calm - N/A   Overcast
7:35 AM 40.8 °F - 37.0 °F 86% 29.94 in 3.0 mi Calm Calm - N/A   Mostly Cloudy
7:55 AM 41.0 °F - 37.0 °F 86% 29.95 in 4.0 mi Calm Calm - N/A   Mostly Cloudy
8:19 AM 41.9 °F - 37.9 °F 86% 29.95 in 5.0 mi Calm Calm - N/A   Mostly Cloudy
8:37 AM 42.8 °F - 39.0 °F 86% 29.95 in 4.0 mi Calm Calm - N/A   Overcast
8:55 AM 43.7 °F - 39.7 °F 86% 29.96 in 4.0 mi Calm Calm - N/A   Overcast
9:15 AM 45.5 °F - 41.7 °F 87% 29.97 in 3.0 mi Calm Calm - N/A   Overcast
9:35 AM 46.8 °F - 43.0 °F 87% 29.98 in 3.0 mi Calm Calm - N/A   Overcast
9:58 AM 47.3 °F - 43.2 °F 86% 29.98 in 3.0 mi Calm Calm - N/A   Overcast
10:16 AM 47.3 °F - 43.7 °F 87% 29.99 in 3.0 mi Calm Calm - N/A   Overcast
10:35 AM 47.8 °F - 43.9 °F 86% 29.99 in 5.0 mi Calm Calm - N/A   Overcast
10:36 AM 48.0 °F - 43.9 °F 86% 29.99 in 5.0 mi Calm Calm - N/A   Overcast
11:19 AM 50.0 °F - 46.0 °F 86% 29.99 in 10.0 mi Calm Calm - N/A   Overcast
11:37 AM 51.4 °F - 45.9 °F 81% 29.99 in 10.0 mi Calm Calm - N/A   Overcast
11:56 AM 51.8 °F - 44.4 °F 76% 30.00 in 10.0 mi NW 3.5 mph - N/A   Overcast
12:15 PM 51.8 °F - 43.5 °F 73% 30.00 in 10.0 mi NW 5.8 mph - N/A   Overcast
12:16 PM 51.8 °F - 43.3 °F 73% 30.01 in 10.0 mi NW 5.8 mph - N/A   Overcast
12:35 PM 51.6 °F - 43.0 °F 72% 30.01 in 10.0 mi West 4.6 mph - N/A   Overcast
12:58 PM 51.8 °F - 42.8 °F 71% 30.01 in 10.0 mi NW 6.9 mph - N/A   Overcast
1:16 PM 51.8 °F - 42.3 °F 70% 30.00 in 10.0 mi WNW 6.9 mph - N/A   Overcast
1:35 PM 51.8 °F - 41.7 °F 68% 30.00 in 10.0 mi NW 8.1 mph - N/A   Overcast
1:36 PM 51.8 °F - 41.7 °F 68% 30.00 in 10.0 mi NW 8.1 mph - N/A   Overcast
1:55 PM 51.4 °F - 41.2 °F 68% 30.00 in 10.0 mi WNW 8.1 mph - N/A   Overcast
1:56 PM 51.4 °F - 41.0 °F 68% 30.00 in 10.0 mi WNW 6.9 mph - N/A   Overcast
2:19 PM 50.9 °F - 40.8 °F 68% 30.01 in 10.0 mi NW 5.8 mph - N/A   Overcast
2:37 PM 50.9 °F - 40.5 °F 67% 30.01 in 10.0 mi NW 6.9 mph - N/A   Overcast
2:55 PM 50.4 °F - 39.9 °F 67% 30.01 in 10.0 mi NW 6.9 mph - N/A   Overcast
2:56 PM 50.4 °F - 39.9 °F 67% 30.01 in 10.0 mi NW 5.8 mph - N/A   Overcast
3:15 PM 50.2 °F - 39.7 °F 67% 30.01 in 10.0 mi WNW 4.6 mph - N/A   Overcast
3:16 PM 50.2 °F - 39.7 °F 67% 30.01 in 10.0 mi WNW 3.5 mph - N/A   Overcast
3:35 PM 50.2 °F - 39.9 °F 68% 30.02 in 10.0 mi WNW 3.5 mph - N/A   Overcast
3:58 PM 50.2 °F - 40.1 °F 68% 30.02 in 10.0 mi Calm Calm - N/A   Overcast
4:16 PM 50.0 °F - 39.7 °F 68% 30.02 in 10.0 mi Calm Calm - N/A   Overcast
4:35 PM 50.0 °F - 39.7 °F 68% 30.02 in 10.0 mi Calm Calm - N/A   Overcast
4:36 PM 50.0 °F - 39.7 °F 68% 30.02 in 10.0 mi Calm Calm - N/A   Overcast
4:55 PM 50.0 °F - 39.6 °F 67% 30.03 in 10.0 mi Calm Calm - N/A   Overcast
5:37 PM 50.0 °F - 39.4 °F 67% 30.03 in 10.0 mi Calm Calm - N/A   Overcast
5:56 PM 49.6 °F - 39.4 °F 68% 30.03 in 10.0 mi Calm Calm - N/A   Overcast
6:15 PM 49.5 °F - 39.4 °F 68% 30.03 in 10.0 mi Calm Calm - N/A   Overcast
6:35 PM 49.1 °F - 39.4 °F 69% 30.03 in 10.0 mi Calm Calm - N/A   Overcast
6:58 PM 48.2 °F - 40.6 °F 75% 30.03 in 10.0 mi Calm Calm - N/A   Overcast
7:15 PM 47.8 °F - 40.5 °F 76% 30.03 in 10.0 mi Calm Calm - N/A   Overcast
7:35 PM 47.8 °F - 41.0 °F 77% 30.04 in 10.0 mi Calm Calm - N/A   Overcast
7:55 PM 48.2 °F - 40.6 °F 75% 30.03 in 10.0 mi Calm Calm - N/A   Overcast
8:19 PM 47.5 °F - 40.6 °F 77% 30.04 in 10.0 mi Calm Calm - N/A   Overcast
8:37 PM 47.8 °F - 40.5 °F 76% 30.03 in 10.0 mi Calm Calm - N/A   Overcast
8:55 PM 47.3 °F - 40.8 °F 78% 30.03 in 10.0 mi Calm Calm - N/A   Overcast
8:56 PM 47.3 °F - 40.6 °F 78% 30.03 in 10.0 mi Calm Calm - N/A   Overcast
9:15 PM 47.5 °F - 40.3 °F 76% 30.03 in 10.0 mi Calm Calm - N/A   Overcast
9:35 PM 47.3 °F - 40.6 °F 78% 30.03 in 10.0 mi Calm Calm - N/A   Overcast
9:58 PM 47.3 °F - 40.8 °F 78% 30.04 in 10.0 mi Calm Calm - N/A   Overcast
10:16 PM 46.9 °F - 40.8 °F 79% 30.03 in 10.0 mi Calm Calm - N/A   Overcast
10:35 PM 46.9 °F - 41.0 °F 80% 30.03 in 10.0 mi Calm Calm - N/A   Overcast
10:55 PM 46.8 °F - 41.0 °F 80% 30.03 in 10.0 mi Calm Calm - N/A   Overcast
11:19 PM 46.4 °F - 40.8 °F 81% 30.03 in 10.0 mi Calm Calm - N/A   Overcast
11:37 PM 46.4 °F - 41.0 °F 81% 30.03 in 10.0 mi Calm Calm - N/A   Overcast
11:55 PM 47.5 °F - 38.8 °F 72% 30.03 in 10.0 mi Calm Calm - N/A   Overcast